Index of /20260507/WXO-DD/model_caps/3km/00/033
Name Last modified Size Description
Parent Directory -
20260507T00Z_MSC_CAPS_AbsoluteVorticity_IsbL-0250_RLatLon0.03_PT033H.grib2 2026-05-07 06:16 1.1M
20260507T00Z_MSC_CAPS_AbsoluteVorticity_IsbL-0500_RLatLon0.03_PT033H.grib2 2026-05-07 06:16 1.1M
20260507T00Z_MSC_CAPS_AbsoluteVorticity_IsbL-0700_RLatLon0.03_PT033H.grib2 2026-05-07 06:16 1.3M
20260507T00Z_MSC_CAPS_AbsoluteVorticity_IsbL-0850_RLatLon0.03_PT033H.grib2 2026-05-07 06:16 1.5M
20260507T00Z_MSC_CAPS_AbsoluteVorticity_IsbL-1000_RLatLon0.03_PT033H.grib2 2026-05-07 06:16 1.4M
20260507T00Z_MSC_CAPS_AirDensity_AGL-120m_RLatLon0.03_PT033H.grib2 2026-05-07 06:16 1.4M
20260507T00Z_MSC_CAPS_AirDensity_AGL-40m_RLatLon0.03_PT033H.grib2 2026-05-07 06:16 1.4M
20260507T00Z_MSC_CAPS_AirDensity_AGL-80m_RLatLon0.03_PT033H.grib2 2026-05-07 06:16 1.4M
20260507T00Z_MSC_CAPS_AirTemp_AGL-120m_RLatLon0.03_PT033H.grib2 2026-05-07 06:16 1.4M
20260507T00Z_MSC_CAPS_AirTemp_AGL-2m_RLatLon0.03_PT033H.grib2 2026-05-07 06:16 1.8M
20260507T00Z_MSC_CAPS_AirTemp_AGL-40m_RLatLon0.03_PT033H.grib2 2026-05-07 06:16 1.5M
20260507T00Z_MSC_CAPS_AirTemp_AGL-80m_RLatLon0.03_PT033H.grib2 2026-05-07 06:16 1.4M
20260507T00Z_MSC_CAPS_AirTemp_IsbL-0050_RLatLon0.03_PT033H.grib2 2026-05-07 06:16 691K
20260507T00Z_MSC_CAPS_AirTemp_IsbL-0100_RLatLon0.03_PT033H.grib2 2026-05-07 06:16 939K
20260507T00Z_MSC_CAPS_AirTemp_IsbL-0150_RLatLon0.03_PT033H.grib2 2026-05-07 06:16 743K
20260507T00Z_MSC_CAPS_AirTemp_IsbL-0175_RLatLon0.03_PT033H.grib2 2026-05-07 06:16 770K
20260507T00Z_MSC_CAPS_AirTemp_IsbL-0200_RLatLon0.03_PT033H.grib2 2026-05-07 06:16 788K
20260507T00Z_MSC_CAPS_AirTemp_IsbL-0225_RLatLon0.03_PT033H.grib2 2026-05-07 06:16 790K
20260507T00Z_MSC_CAPS_AirTemp_IsbL-0250_RLatLon0.03_PT033H.grib2 2026-05-07 06:16 775K
20260507T00Z_MSC_CAPS_AirTemp_IsbL-0275_RLatLon0.03_PT033H.grib2 2026-05-07 06:16 1.0M
20260507T00Z_MSC_CAPS_AirTemp_IsbL-0300_RLatLon0.03_PT033H.grib2 2026-05-07 06:16 1.0M
20260507T00Z_MSC_CAPS_AirTemp_IsbL-0350_RLatLon0.03_PT033H.grib2 2026-05-07 06:16 744K
20260507T00Z_MSC_CAPS_AirTemp_IsbL-0400_RLatLon0.03_PT033H.grib2 2026-05-07 06:16 749K
20260507T00Z_MSC_CAPS_AirTemp_IsbL-0450_RLatLon0.03_PT033H.grib2 2026-05-07 06:16 766K
20260507T00Z_MSC_CAPS_AirTemp_IsbL-0500_RLatLon0.03_PT033H.grib2 2026-05-07 06:16 786K
20260507T00Z_MSC_CAPS_AirTemp_IsbL-0550_RLatLon0.03_PT033H.grib2 2026-05-07 06:16 954K
20260507T00Z_MSC_CAPS_AirTemp_IsbL-0600_RLatLon0.03_PT033H.grib2 2026-05-07 06:16 818K
20260507T00Z_MSC_CAPS_AirTemp_IsbL-0650_RLatLon0.03_PT033H.grib2 2026-05-07 06:16 844K
20260507T00Z_MSC_CAPS_AirTemp_IsbL-0700_RLatLon0.03_PT033H.grib2 2026-05-07 06:16 881K
20260507T00Z_MSC_CAPS_AirTemp_IsbL-0750_RLatLon0.03_PT033H.grib2 2026-05-07 06:16 919K
20260507T00Z_MSC_CAPS_AirTemp_IsbL-0800_RLatLon0.03_PT033H.grib2 2026-05-07 06:16 1.1M
20260507T00Z_MSC_CAPS_AirTemp_IsbL-0850_RLatLon0.03_PT033H.grib2 2026-05-07 06:16 1.1M
20260507T00Z_MSC_CAPS_AirTemp_IsbL-0875_RLatLon0.03_PT033H.grib2 2026-05-07 06:16 1.1M
20260507T00Z_MSC_CAPS_AirTemp_IsbL-0900_RLatLon0.03_PT033H.grib2 2026-05-07 06:16 1.1M
20260507T00Z_MSC_CAPS_AirTemp_IsbL-0925_RLatLon0.03_PT033H.grib2 2026-05-07 06:16 1.1M
20260507T00Z_MSC_CAPS_AirTemp_IsbL-0950_RLatLon0.03_PT033H.grib2 2026-05-07 06:16 1.1M
20260507T00Z_MSC_CAPS_AirTemp_IsbL-0970_RLatLon0.03_PT033H.grib2 2026-05-07 06:16 1.1M
20260507T00Z_MSC_CAPS_AirTemp_IsbL-0985_RLatLon0.03_PT033H.grib2 2026-05-07 06:16 1.1M
20260507T00Z_MSC_CAPS_AirTemp_IsbL-1000_RLatLon0.03_PT033H.grib2 2026-05-07 06:16 1.1M
20260507T00Z_MSC_CAPS_AirTemp_IsbL-1015_RLatLon0.03_PT033H.grib2 2026-05-07 06:16 1.1M
20260507T00Z_MSC_CAPS_Albedo_Sfc_RLatLon0.03_PT033H.grib2 2026-05-07 06:16 2.7M
20260507T00Z_MSC_CAPS_CAPE_Sfc_RLatLon0.03_PT033H.grib2 2026-05-07 06:16 228K
20260507T00Z_MSC_CAPS_CloudWater_EAtm_RLatLon0.03_PT033H.grib2 2026-05-07 06:16 1.6M
20260507T00Z_MSC_CAPS_ConvectivePrecip-Accum_Sfc_RLatLon0.03_PT033H.grib2 2026-05-07 06:16 4.6M
20260507T00Z_MSC_CAPS_DewPointDepression_AGL-120m_RLatLon0.03_PT033H.grib2 2026-05-07 06:16 2.1M
20260507T00Z_MSC_CAPS_DewPointDepression_AGL-2m_RLatLon0.03_PT033H.grib2 2026-05-07 06:16 2.2M
20260507T00Z_MSC_CAPS_DewPointDepression_AGL-40m_RLatLon0.03_PT033H.grib2 2026-05-07 06:16 2.1M
20260507T00Z_MSC_CAPS_DewPointDepression_AGL-80m_RLatLon0.03_PT033H.grib2 2026-05-07 06:16 2.1M
20260507T00Z_MSC_CAPS_DewPointDepression_IsbL-0050_RLatLon0.03_PT033H.grib2 2026-05-07 06:16 8.3K
20260507T00Z_MSC_CAPS_DewPointDepression_IsbL-0100_RLatLon0.03_PT033H.grib2 2026-05-07 06:16 41K
20260507T00Z_MSC_CAPS_DewPointDepression_IsbL-0150_RLatLon0.03_PT033H.grib2 2026-05-07 06:16 70K
20260507T00Z_MSC_CAPS_DewPointDepression_IsbL-0175_RLatLon0.03_PT033H.grib2 2026-05-07 06:16 203K
20260507T00Z_MSC_CAPS_DewPointDepression_IsbL-0200_RLatLon0.03_PT033H.grib2 2026-05-07 06:16 406K
20260507T00Z_MSC_CAPS_DewPointDepression_IsbL-0225_RLatLon0.03_PT033H.grib2 2026-05-07 06:16 595K
20260507T00Z_MSC_CAPS_DewPointDepression_IsbL-0250_RLatLon0.03_PT033H.grib2 2026-05-07 06:16 869K
20260507T00Z_MSC_CAPS_DewPointDepression_IsbL-0275_RLatLon0.03_PT033H.grib2 2026-05-07 06:16 1.0M
20260507T00Z_MSC_CAPS_DewPointDepression_IsbL-0300_RLatLon0.03_PT033H.grib2 2026-05-07 06:16 1.1M
20260507T00Z_MSC_CAPS_DewPointDepression_IsbL-0350_RLatLon0.03_PT033H.grib2 2026-05-07 06:16 1.1M
20260507T00Z_MSC_CAPS_DewPointDepression_IsbL-0400_RLatLon0.03_PT033H.grib2 2026-05-07 06:16 1.1M
20260507T00Z_MSC_CAPS_DewPointDepression_IsbL-0450_RLatLon0.03_PT033H.grib2 2026-05-07 06:16 1.2M
20260507T00Z_MSC_CAPS_DewPointDepression_IsbL-0500_RLatLon0.03_PT033H.grib2 2026-05-07 06:16 1.2M
20260507T00Z_MSC_CAPS_DewPointDepression_IsbL-0550_RLatLon0.03_PT033H.grib2 2026-05-07 06:16 1.3M
20260507T00Z_MSC_CAPS_DewPointDepression_IsbL-0600_RLatLon0.03_PT033H.grib2 2026-05-07 06:16 1.3M
20260507T00Z_MSC_CAPS_DewPointDepression_IsbL-0650_RLatLon0.03_PT033H.grib2 2026-05-07 06:16 1.3M
20260507T00Z_MSC_CAPS_DewPointDepression_IsbL-0700_RLatLon0.03_PT033H.grib2 2026-05-07 06:16 1.4M
20260507T00Z_MSC_CAPS_DewPointDepression_IsbL-0750_RLatLon0.03_PT033H.grib2 2026-05-07 06:16 1.4M
20260507T00Z_MSC_CAPS_DewPointDepression_IsbL-0800_RLatLon0.03_PT033H.grib2 2026-05-07 06:16 1.4M
20260507T00Z_MSC_CAPS_DewPointDepression_IsbL-0850_RLatLon0.03_PT033H.grib2 2026-05-07 06:16 1.4M
20260507T00Z_MSC_CAPS_DewPointDepression_IsbL-0875_RLatLon0.03_PT033H.grib2 2026-05-07 06:16 1.4M
20260507T00Z_MSC_CAPS_DewPointDepression_IsbL-0900_RLatLon0.03_PT033H.grib2 2026-05-07 06:16 1.4M
20260507T00Z_MSC_CAPS_DewPointDepression_IsbL-0925_RLatLon0.03_PT033H.grib2 2026-05-07 06:16 1.4M
20260507T00Z_MSC_CAPS_DewPointDepression_IsbL-0950_RLatLon0.03_PT033H.grib2 2026-05-07 06:16 1.4M
20260507T00Z_MSC_CAPS_DewPointDepression_IsbL-0970_RLatLon0.03_PT033H.grib2 2026-05-07 06:16 1.4M
20260507T00Z_MSC_CAPS_DewPointDepression_IsbL-0985_RLatLon0.03_PT033H.grib2 2026-05-07 06:16 1.4M
20260507T00Z_MSC_CAPS_DewPointDepression_IsbL-1000_RLatLon0.03_PT033H.grib2 2026-05-07 06:16 1.4M
20260507T00Z_MSC_CAPS_DewPointDepression_IsbL-1015_RLatLon0.03_PT033H.grib2 2026-05-07 06:16 1.4M
20260507T00Z_MSC_CAPS_DewPoint_AGL-120m_RLatLon0.03_PT033H.grib2 2026-05-07 06:16 3.7M
20260507T00Z_MSC_CAPS_DewPoint_AGL-2m_RLatLon0.03_PT033H.grib2 2026-05-07 06:16 1.8M
20260507T00Z_MSC_CAPS_DewPoint_AGL-40m_RLatLon0.03_PT033H.grib2 2026-05-07 06:16 3.7M
20260507T00Z_MSC_CAPS_DewPoint_AGL-80m_RLatLon0.03_PT033H.grib2 2026-05-07 06:16 3.7M
20260507T00Z_MSC_CAPS_DownwardLongwaveRadiationFlux-Accum_Sfc_RLatLon0.03_PT033H.grib2 2026-05-07 06:16 2.6M
20260507T00Z_MSC_CAPS_DownwardShortwaveRadiationFlux-Accum_NTAtm_RLatLon0.03_PT033H.grib2 2026-05-07 06:16 483K
20260507T00Z_MSC_CAPS_DownwardShortwaveRadiationFlux-Accum_Sfc_RLatLon0.03_PT033H.grib2 2026-05-07 06:16 2.9M
20260507T00Z_MSC_CAPS_FreezingRain-Accum_Sfc_RLatLon0.03_PT033H.grib2 2026-05-07 06:16 887K
20260507T00Z_MSC_CAPS_GeopotentialHeight_IsbL-0050_RLatLon0.03_PT033H.grib2 2026-05-07 06:16 828K
20260507T00Z_MSC_CAPS_GeopotentialHeight_IsbL-0100_RLatLon0.03_PT033H.grib2 2026-05-07 06:16 745K
20260507T00Z_MSC_CAPS_GeopotentialHeight_IsbL-0150_RLatLon0.03_PT033H.grib2 2026-05-07 06:16 598K
20260507T00Z_MSC_CAPS_GeopotentialHeight_IsbL-0175_RLatLon0.03_PT033H.grib2 2026-05-07 06:16 715K
20260507T00Z_MSC_CAPS_GeopotentialHeight_IsbL-0200_RLatLon0.03_PT033H.grib2 2026-05-07 06:16 731K
20260507T00Z_MSC_CAPS_GeopotentialHeight_IsbL-0225_RLatLon0.03_PT033H.grib2 2026-05-07 06:16 743K
20260507T00Z_MSC_CAPS_GeopotentialHeight_IsbL-0250_RLatLon0.03_PT033H.grib2 2026-05-07 06:16 755K
20260507T00Z_MSC_CAPS_GeopotentialHeight_IsbL-0275_RLatLon0.03_PT033H.grib2 2026-05-07 06:16 768K
20260507T00Z_MSC_CAPS_GeopotentialHeight_IsbL-0300_RLatLon0.03_PT033H.grib2 2026-05-07 06:16 772K
20260507T00Z_MSC_CAPS_GeopotentialHeight_IsbL-0350_RLatLon0.03_PT033H.grib2 2026-05-07 06:16 773K
20260507T00Z_MSC_CAPS_GeopotentialHeight_IsbL-0400_RLatLon0.03_PT033H.grib2 2026-05-07 06:16 767K
20260507T00Z_MSC_CAPS_GeopotentialHeight_IsbL-0450_RLatLon0.03_PT033H.grib2 2026-05-07 06:16 760K
20260507T00Z_MSC_CAPS_GeopotentialHeight_IsbL-0500_RLatLon0.03_PT033H.grib2 2026-05-07 06:16 753K
20260507T00Z_MSC_CAPS_GeopotentialHeight_IsbL-0550_RLatLon0.03_PT033H.grib2 2026-05-07 06:16 743K
20260507T00Z_MSC_CAPS_GeopotentialHeight_IsbL-0600_RLatLon0.03_PT033H.grib2 2026-05-07 06:16 627K
20260507T00Z_MSC_CAPS_GeopotentialHeight_IsbL-0650_RLatLon0.03_PT033H.grib2 2026-05-07 06:16 625K
20260507T00Z_MSC_CAPS_GeopotentialHeight_IsbL-0700_RLatLon0.03_PT033H.grib2 2026-05-07 06:16 627K
20260507T00Z_MSC_CAPS_GeopotentialHeight_IsbL-0750_RLatLon0.03_PT033H.grib2 2026-05-07 06:16 624K
20260507T00Z_MSC_CAPS_GeopotentialHeight_IsbL-0800_RLatLon0.03_PT033H.grib2 2026-05-07 06:16 624K
20260507T00Z_MSC_CAPS_GeopotentialHeight_IsbL-0850_RLatLon0.03_PT033H.grib2 2026-05-07 06:16 814K
20260507T00Z_MSC_CAPS_GeopotentialHeight_IsbL-0875_RLatLon0.03_PT033H.grib2 2026-05-07 06:16 821K
20260507T00Z_MSC_CAPS_GeopotentialHeight_IsbL-0900_RLatLon0.03_PT033H.grib2 2026-05-07 06:16 828K
20260507T00Z_MSC_CAPS_GeopotentialHeight_IsbL-0925_RLatLon0.03_PT033H.grib2 2026-05-07 06:16 824K
20260507T00Z_MSC_CAPS_GeopotentialHeight_IsbL-0950_RLatLon0.03_PT033H.grib2 2026-05-07 06:16 843K
20260507T00Z_MSC_CAPS_GeopotentialHeight_IsbL-0970_RLatLon0.03_PT033H.grib2 2026-05-07 06:16 854K
20260507T00Z_MSC_CAPS_GeopotentialHeight_IsbL-0985_RLatLon0.03_PT033H.grib2 2026-05-07 06:16 863K
20260507T00Z_MSC_CAPS_GeopotentialHeight_IsbL-1000_RLatLon0.03_PT033H.grib2 2026-05-07 06:16 873K
20260507T00Z_MSC_CAPS_GeopotentialHeight_IsbL-1015_RLatLon0.03_PT033H.grib2 2026-05-07 06:16 885K
20260507T00Z_MSC_CAPS_GeopotentialHeight_Sfc_RLatLon0.03_PT033H.grib2 2026-05-07 06:16 1.0M
20260507T00Z_MSC_CAPS_IcePellets-Accum_Sfc_RLatLon0.03_PT033H.grib2 2026-05-07 06:16 13K
20260507T00Z_MSC_CAPS_LatentHeatNetFlux_Sfc_RLatLon0.03_PT033H.grib2 2026-05-07 06:16 1.8M
20260507T00Z_MSC_CAPS_LiftedIndex-MU-VT_IsbL-0500_RLatLon0.03_PT033H.grib2 2026-05-07 06:16 3.4M
20260507T00Z_MSC_CAPS_MixedLayerThickness_Sfc_RLatLon0.03_PT033H.nc 2026-05-07 06:13 16M
20260507T00Z_MSC_CAPS_NetLongwaveRadiationFlux-Accum_Sfc_RLatLon0.03_PT033H.grib2 2026-05-07 06:16 2.8M
20260507T00Z_MSC_CAPS_NetShortwaveRadiationFlux-Accum_Sfc_RLatLon0.03_PT033H.grib2 2026-05-07 06:16 2.8M
20260507T00Z_MSC_CAPS_PlanetaryBoundaryLayerHeight_Sfc_RLatLon0.03_PT033H.grib2 2026-05-07 06:16 2.6M
20260507T00Z_MSC_CAPS_Precip-Accum_Sfc_RLatLon0.03_PT033H.grib2 2026-05-07 06:16 5.3M
20260507T00Z_MSC_CAPS_PrecipRate_Sfc_RLatLon0.03_PT033H.grib2 2026-05-07 06:16 505K
20260507T00Z_MSC_CAPS_PrecipType-Instant_Sfc_RLatLon0.03_PT033H.grib2 2026-05-07 06:16 2.1M
20260507T00Z_MSC_CAPS_Pressure_MSL_RLatLon0.03_PT033H.grib2 2026-05-07 06:16 761K
20260507T00Z_MSC_CAPS_Pressure_Sfc_RLatLon0.03_PT033H.grib2 2026-05-07 06:16 1.2M
20260507T00Z_MSC_CAPS_RadiativeTemp_Sfc_RLatLon0.03_PT033H.grib2 2026-05-07 06:16 2.1M
20260507T00Z_MSC_CAPS_Rain-Accum_Sfc_RLatLon0.03_PT033H.grib2 2026-05-07 06:16 2.6M
20260507T00Z_MSC_CAPS_RelativeHumidity_AGL-120m_RLatLon0.03_PT033H.grib2 2026-05-07 06:16 2.8M
20260507T00Z_MSC_CAPS_RelativeHumidity_AGL-2m_RLatLon0.03_PT033H.grib2 2026-05-07 06:16 2.9M
20260507T00Z_MSC_CAPS_RelativeHumidity_AGL-40m_RLatLon0.03_PT033H.grib2 2026-05-07 06:16 2.9M
20260507T00Z_MSC_CAPS_RelativeHumidity_AGL-80m_RLatLon0.03_PT033H.grib2 2026-05-07 06:16 2.8M
20260507T00Z_MSC_CAPS_RelativeHumidity_IsbL-0050_RLatLon0.03_PT033H.grib2 2026-05-07 06:16 721K
20260507T00Z_MSC_CAPS_RelativeHumidity_IsbL-0100_RLatLon0.03_PT033H.grib2 2026-05-07 06:16 823K
20260507T00Z_MSC_CAPS_RelativeHumidity_IsbL-0150_RLatLon0.03_PT033H.grib2 2026-05-07 06:16 579K
20260507T00Z_MSC_CAPS_RelativeHumidity_IsbL-0175_RLatLon0.03_PT033H.grib2 2026-05-07 06:16 473K
20260507T00Z_MSC_CAPS_RelativeHumidity_IsbL-0200_RLatLon0.03_PT033H.grib2 2026-05-07 06:16 670K
20260507T00Z_MSC_CAPS_RelativeHumidity_IsbL-0225_RLatLon0.03_PT033H.grib2 2026-05-07 06:16 915K
20260507T00Z_MSC_CAPS_RelativeHumidity_IsbL-0250_RLatLon0.03_PT033H.grib2 2026-05-07 06:16 1.1M
20260507T00Z_MSC_CAPS_RelativeHumidity_IsbL-0275_RLatLon0.03_PT033H.grib2 2026-05-07 06:16 1.4M
20260507T00Z_MSC_CAPS_RelativeHumidity_IsbL-0300_RLatLon0.03_PT033H.grib2 2026-05-07 06:16 1.7M
20260507T00Z_MSC_CAPS_RelativeHumidity_IsbL-0350_RLatLon0.03_PT033H.grib2 2026-05-07 06:16 2.0M
20260507T00Z_MSC_CAPS_RelativeHumidity_IsbL-0400_RLatLon0.03_PT033H.grib2 2026-05-07 06:16 2.1M
20260507T00Z_MSC_CAPS_RelativeHumidity_IsbL-0450_RLatLon0.03_PT033H.grib2 2026-05-07 06:16 2.2M
20260507T00Z_MSC_CAPS_RelativeHumidity_IsbL-0500_RLatLon0.03_PT033H.grib2 2026-05-07 06:16 2.2M
20260507T00Z_MSC_CAPS_RelativeHumidity_IsbL-0550_RLatLon0.03_PT033H.grib2 2026-05-07 06:16 2.3M
20260507T00Z_MSC_CAPS_RelativeHumidity_IsbL-0600_RLatLon0.03_PT033H.grib2 2026-05-07 06:16 2.3M
20260507T00Z_MSC_CAPS_RelativeHumidity_IsbL-0650_RLatLon0.03_PT033H.grib2 2026-05-07 06:16 2.3M
20260507T00Z_MSC_CAPS_RelativeHumidity_IsbL-0700_RLatLon0.03_PT033H.grib2 2026-05-07 06:16 2.4M
20260507T00Z_MSC_CAPS_RelativeHumidity_IsbL-0750_RLatLon0.03_PT033H.grib2 2026-05-07 06:16 2.5M
20260507T00Z_MSC_CAPS_RelativeHumidity_IsbL-0800_RLatLon0.03_PT033H.grib2 2026-05-07 06:16 2.6M
20260507T00Z_MSC_CAPS_RelativeHumidity_IsbL-0850_RLatLon0.03_PT033H.grib2 2026-05-07 06:16 2.7M
20260507T00Z_MSC_CAPS_RelativeHumidity_IsbL-0875_RLatLon0.03_PT033H.grib2 2026-05-07 06:16 2.7M
20260507T00Z_MSC_CAPS_RelativeHumidity_IsbL-0900_RLatLon0.03_PT033H.grib2 2026-05-07 06:16 2.7M
20260507T00Z_MSC_CAPS_RelativeHumidity_IsbL-0925_RLatLon0.03_PT033H.grib2 2026-05-07 06:16 2.7M
20260507T00Z_MSC_CAPS_RelativeHumidity_IsbL-0950_RLatLon0.03_PT033H.grib2 2026-05-07 06:16 2.8M
20260507T00Z_MSC_CAPS_RelativeHumidity_IsbL-0970_RLatLon0.03_PT033H.grib2 2026-05-07 06:16 2.8M
20260507T00Z_MSC_CAPS_RelativeHumidity_IsbL-0985_RLatLon0.03_PT033H.grib2 2026-05-07 06:16 2.9M
20260507T00Z_MSC_CAPS_RelativeHumidity_IsbL-1000_RLatLon0.03_PT033H.grib2 2026-05-07 06:16 2.9M
20260507T00Z_MSC_CAPS_RelativeHumidity_IsbL-1015_RLatLon0.03_PT033H.grib2 2026-05-07 06:16 3.0M
20260507T00Z_MSC_CAPS_Runoff-Accum_Sfc_RLatLon0.03_PT033H.grib2 2026-05-07 06:16 419K
20260507T00Z_MSC_CAPS_SeaIceAreaFraction_Sfc_RLatLon0.03_PT033H.nc 2026-05-07 06:13 15M
20260507T00Z_MSC_CAPS_SeaIceCompressiveStrength_Sfc_RLatLon0.03_PT033H.nc 2026-05-07 06:13 15M
20260507T00Z_MSC_CAPS_SeaIceDivergence_Sfc_RLatLon0.03_PT033H.nc 2026-05-07 06:13 15M
20260507T00Z_MSC_CAPS_SeaIceInternalPressure_Sfc_RLatLon0.03_PT033H.nc 2026-05-07 06:13 15M
20260507T00Z_MSC_CAPS_SeaIceShear_Sfc_RLatLon0.03_PT033H.nc 2026-05-07 06:13 15M
20260507T00Z_MSC_CAPS_SeaIceSnowTemp_Sfc_RLatLon0.03_PT033H.nc 2026-05-07 06:13 14M
20260507T00Z_MSC_CAPS_SeaIceSnowVolume_Sfc_RLatLon0.03_PT033H.nc 2026-05-07 06:13 15M
20260507T00Z_MSC_CAPS_SeaIceVelocityX_Sfc_RLatLon0.03_PT033H.nc 2026-05-07 06:13 15M
20260507T00Z_MSC_CAPS_SeaIceVelocityY_Sfc_RLatLon0.03_PT033H.nc 2026-05-07 06:13 15M
20260507T00Z_MSC_CAPS_SeaIceVolume_Sfc_RLatLon0.03_PT033H.nc 2026-05-07 06:13 15M
20260507T00Z_MSC_CAPS_SeaSurfaceHeight_Sfc_RLatLon0.03_PT033H.nc 2026-05-07 06:13 16M
20260507T00Z_MSC_CAPS_SeaWaterSalinity_DBS-0.5m_RLatLon0.03_PT033H.nc 2026-05-07 06:13 16M
20260507T00Z_MSC_CAPS_SeaWaterSalinity_DBS-all_RLatLon0.03_PT033H.nc 2026-05-07 06:13 107M
20260507T00Z_MSC_CAPS_SeaWaterTemp_DBS-0.5m_RLatLon0.03_PT033H.nc 2026-05-07 06:13 15M
20260507T00Z_MSC_CAPS_SeaWaterTemp_DBS-all_RLatLon0.03_PT033H.nc 2026-05-07 06:13 88M
20260507T00Z_MSC_CAPS_SeaWaterVelocityX_DBS-0.5m_RLatLon0.03_PT033H.nc 2026-05-07 06:13 17M
20260507T00Z_MSC_CAPS_SeaWaterVelocityX_DBS-all_RLatLon0.03_PT033H.nc 2026-05-07 06:13 208M
20260507T00Z_MSC_CAPS_SeaWaterVelocityY_DBS-0.5m_RLatLon0.03_PT033H.nc 2026-05-07 06:13 18M
20260507T00Z_MSC_CAPS_SeaWaterVelocityY_DBS-all_RLatLon0.03_PT033H.nc 2026-05-07 06:13 217M
20260507T00Z_MSC_CAPS_SensibleHeatNetFlux_Sfc_RLatLon0.03_PT033H.grib2 2026-05-07 06:16 2.0M
20260507T00Z_MSC_CAPS_ShowalterIndex_IsbL-0500_RLatLon0.03_PT033H.grib2 2026-05-07 06:16 4.3M
20260507T00Z_MSC_CAPS_Snow-Accum_Sfc_RLatLon0.03_PT033H.grib2 2026-05-07 06:16 4.0M
20260507T00Z_MSC_CAPS_SnowDensity_Sfc_RLatLon0.03_PT033H.grib2 2026-05-07 06:16 1.3M
20260507T00Z_MSC_CAPS_SnowDepthWaterEquivalent_Sfc_RLatLon0.03_PT033H.grib2 2026-05-07 06:16 645K
20260507T00Z_MSC_CAPS_SnowDepth_Sfc_RLatLon0.03_PT033H.grib2 2026-05-07 06:16 1.1M
20260507T00Z_MSC_CAPS_SoilTemp_DBS-0to10cm_RLatLon0.03_PT033H.grib2 2026-05-07 06:16 1.6M
20260507T00Z_MSC_CAPS_SoilTemp_Sfc_RLatLon0.03_PT033H.grib2 2026-05-07 06:16 1.8M
20260507T00Z_MSC_CAPS_SoilVolumetricIceContent_Sfc_RLatLon0.03_PT033H.grib2 2026-05-07 06:16 1.3M
20260507T00Z_MSC_CAPS_SoilVolumetricWaterContent_DBS-0to10cm_RLatLon0.03_PT033H.grib2 2026-05-07 06:16 1.4M
20260507T00Z_MSC_CAPS_SoilVolumetricWaterContent_DBS-0to1cm_RLatLon0.03_PT033H.grib2 2026-05-07 06:16 1.8M
20260507T00Z_MSC_CAPS_SpecificHumidity_AGL-120m_RLatLon0.03_PT033H.grib2 2026-05-07 06:16 1.5M
20260507T00Z_MSC_CAPS_SpecificHumidity_AGL-2m_RLatLon0.03_PT033H.grib2 2026-05-07 06:16 1.8M
20260507T00Z_MSC_CAPS_SpecificHumidity_AGL-40m_RLatLon0.03_PT033H.grib2 2026-05-07 06:16 1.5M
20260507T00Z_MSC_CAPS_SpecificHumidity_AGL-80m_RLatLon0.03_PT033H.grib2 2026-05-07 06:16 1.5M
20260507T00Z_MSC_CAPS_SpecificHumidity_IsbL-0050_RLatLon0.03_PT033H.grib2 2026-05-07 06:16 917K
20260507T00Z_MSC_CAPS_SpecificHumidity_IsbL-0100_RLatLon0.03_PT033H.grib2 2026-05-07 06:16 961K
20260507T00Z_MSC_CAPS_SpecificHumidity_IsbL-0150_RLatLon0.03_PT033H.grib2 2026-05-07 06:16 1.0M
20260507T00Z_MSC_CAPS_SpecificHumidity_IsbL-0175_RLatLon0.03_PT033H.grib2 2026-05-07 06:16 1.0M
20260507T00Z_MSC_CAPS_SpecificHumidity_IsbL-0200_RLatLon0.03_PT033H.grib2 2026-05-07 06:16 908K
20260507T00Z_MSC_CAPS_SpecificHumidity_IsbL-0225_RLatLon0.03_PT033H.grib2 2026-05-07 06:16 1.1M
20260507T00Z_MSC_CAPS_SpecificHumidity_IsbL-0250_RLatLon0.03_PT033H.grib2 2026-05-07 06:16 1.1M
20260507T00Z_MSC_CAPS_SpecificHumidity_IsbL-0275_RLatLon0.03_PT033H.grib2 2026-05-07 06:16 1.1M
20260507T00Z_MSC_CAPS_SpecificHumidity_IsbL-0300_RLatLon0.03_PT033H.grib2 2026-05-07 06:16 1.1M
20260507T00Z_MSC_CAPS_SpecificHumidity_IsbL-0350_RLatLon0.03_PT033H.grib2 2026-05-07 06:16 1.0M
20260507T00Z_MSC_CAPS_SpecificHumidity_IsbL-0400_RLatLon0.03_PT033H.grib2 2026-05-07 06:16 1.0M
20260507T00Z_MSC_CAPS_SpecificHumidity_IsbL-0450_RLatLon0.03_PT033H.grib2 2026-05-07 06:16 1.0M
20260507T00Z_MSC_CAPS_SpecificHumidity_IsbL-0500_RLatLon0.03_PT033H.grib2 2026-05-07 06:16 1.1M
20260507T00Z_MSC_CAPS_SpecificHumidity_IsbL-0550_RLatLon0.03_PT033H.grib2 2026-05-07 06:16 1.3M
20260507T00Z_MSC_CAPS_SpecificHumidity_IsbL-0600_RLatLon0.03_PT033H.grib2 2026-05-07 06:16 1.5M
20260507T00Z_MSC_CAPS_SpecificHumidity_IsbL-0650_RLatLon0.03_PT033H.grib2 2026-05-07 06:16 1.2M
20260507T00Z_MSC_CAPS_SpecificHumidity_IsbL-0700_RLatLon0.03_PT033H.grib2 2026-05-07 06:16 1.4M
20260507T00Z_MSC_CAPS_SpecificHumidity_IsbL-0750_RLatLon0.03_PT033H.grib2 2026-05-07 06:16 1.5M
20260507T00Z_MSC_CAPS_SpecificHumidity_IsbL-0800_RLatLon0.03_PT033H.grib2 2026-05-07 06:16 1.7M
20260507T00Z_MSC_CAPS_SpecificHumidity_IsbL-0850_RLatLon0.03_PT033H.grib2 2026-05-07 06:16 1.9M
20260507T00Z_MSC_CAPS_SpecificHumidity_IsbL-0875_RLatLon0.03_PT033H.grib2 2026-05-07 06:16 1.9M
20260507T00Z_MSC_CAPS_SpecificHumidity_IsbL-0900_RLatLon0.03_PT033H.grib2 2026-05-07 06:16 1.6M
20260507T00Z_MSC_CAPS_SpecificHumidity_IsbL-0925_RLatLon0.03_PT033H.grib2 2026-05-07 06:16 1.6M
20260507T00Z_MSC_CAPS_SpecificHumidity_IsbL-0950_RLatLon0.03_PT033H.grib2 2026-05-07 06:16 1.7M
20260507T00Z_MSC_CAPS_SpecificHumidity_IsbL-0970_RLatLon0.03_PT033H.grib2 2026-05-07 06:16 1.7M
20260507T00Z_MSC_CAPS_SpecificHumidity_IsbL-0985_RLatLon0.03_PT033H.grib2 2026-05-07 06:16 1.7M
20260507T00Z_MSC_CAPS_SpecificHumidity_IsbL-1000_RLatLon0.03_PT033H.grib2 2026-05-07 06:16 1.8M
20260507T00Z_MSC_CAPS_SpecificHumidity_IsbL-1015_RLatLon0.03_PT033H.grib2 2026-05-07 06:16 1.8M
20260507T00Z_MSC_CAPS_SpecificHumidity_Sfc_RLatLon0.03_PT033H.grib2 2026-05-07 06:16 2.1M
20260507T00Z_MSC_CAPS_StormRelativeHelicity_Sfc_RLatLon0.03_PT033H.grib2 2026-05-07 06:16 3.2M
20260507T00Z_MSC_CAPS_Thickness_IsbL-1000to0500_RLatLon0.03_PT033H.grib2 2026-05-07 06:16 412K
20260507T00Z_MSC_CAPS_TotalCloudCover_Sfc_RLatLon0.03_PT033H.grib2 2026-05-07 06:16 3.7M
20260507T00Z_MSC_CAPS_TurboclineDepth_Sfc_RLatLon0.03_PT033H.nc 2026-05-07 06:13 16M
20260507T00Z_MSC_CAPS_UpwardLongwaveRadiationFlux_NTAtm_RLatLon0.03_PT033H.grib2 2026-05-07 06:16 3.0M
20260507T00Z_MSC_CAPS_UpwardShortwaveRadiationFlux_NTAtm_RLatLon0.03_PT033H.grib2 2026-05-07 06:16 2.0M
20260507T00Z_MSC_CAPS_VerticalVelocity_IsbL-0250_RLatLon0.03_PT033H.grib2 2026-05-07 06:16 1.1M
20260507T00Z_MSC_CAPS_VerticalVelocity_IsbL-0500_RLatLon0.03_PT033H.grib2 2026-05-07 06:16 1.0M
20260507T00Z_MSC_CAPS_VerticalVelocity_IsbL-0700_RLatLon0.03_PT033H.grib2 2026-05-07 06:16 1.2M
20260507T00Z_MSC_CAPS_VerticalVelocity_IsbL-0850_RLatLon0.03_PT033H.grib2 2026-05-07 06:16 1.5M
20260507T00Z_MSC_CAPS_VerticalVelocity_IsbL-1000_RLatLon0.03_PT033H.grib2 2026-05-07 06:16 1.3M
20260507T00Z_MSC_CAPS_WindDir_AGL-10m_RLatLon0.03_PT033H.grib2 2026-05-07 06:16 2.5M
20260507T00Z_MSC_CAPS_WindDir_AGL-120m_RLatLon0.03_PT033H.grib2 2026-05-07 06:16 1.3M
20260507T00Z_MSC_CAPS_WindDir_AGL-40m_RLatLon0.03_PT033H.grib2 2026-05-07 06:16 1.4M
20260507T00Z_MSC_CAPS_WindDir_AGL-80m_RLatLon0.03_PT033H.grib2 2026-05-07 06:16 1.4M
20260507T00Z_MSC_CAPS_WindDir_IsbL-0050_RLatLon0.03_PT033H.grib2 2026-05-07 06:16 1.2M
20260507T00Z_MSC_CAPS_WindDir_IsbL-0100_RLatLon0.03_PT033H.grib2 2026-05-07 06:16 1.1M
20260507T00Z_MSC_CAPS_WindDir_IsbL-0150_RLatLon0.03_PT033H.grib2 2026-05-07 06:16 1.1M
20260507T00Z_MSC_CAPS_WindDir_IsbL-0175_RLatLon0.03_PT033H.grib2 2026-05-07 06:16 1.1M
20260507T00Z_MSC_CAPS_WindDir_IsbL-0200_RLatLon0.03_PT033H.grib2 2026-05-07 06:16 1.1M
20260507T00Z_MSC_CAPS_WindDir_IsbL-0225_RLatLon0.03_PT033H.grib2 2026-05-07 06:16 1.2M
20260507T00Z_MSC_CAPS_WindDir_IsbL-0250_RLatLon0.03_PT033H.grib2 2026-05-07 06:16 1.1M
20260507T00Z_MSC_CAPS_WindDir_IsbL-0275_RLatLon0.03_PT033H.grib2 2026-05-07 06:16 1.1M
20260507T00Z_MSC_CAPS_WindDir_IsbL-0300_RLatLon0.03_PT033H.grib2 2026-05-07 06:16 1.1M
20260507T00Z_MSC_CAPS_WindDir_IsbL-0350_RLatLon0.03_PT033H.grib2 2026-05-07 06:16 1.1M
20260507T00Z_MSC_CAPS_WindDir_IsbL-0400_RLatLon0.03_PT033H.grib2 2026-05-07 06:16 1.2M
20260507T00Z_MSC_CAPS_WindDir_IsbL-0450_RLatLon0.03_PT033H.grib2 2026-05-07 06:16 1.2M
20260507T00Z_MSC_CAPS_WindDir_IsbL-0500_RLatLon0.03_PT033H.grib2 2026-05-07 06:16 1.3M
20260507T00Z_MSC_CAPS_WindDir_IsbL-0550_RLatLon0.03_PT033H.grib2 2026-05-07 06:16 1.3M
20260507T00Z_MSC_CAPS_WindDir_IsbL-0600_RLatLon0.03_PT033H.grib2 2026-05-07 06:16 1.3M
20260507T00Z_MSC_CAPS_WindDir_IsbL-0650_RLatLon0.03_PT033H.grib2 2026-05-07 06:16 1.4M
20260507T00Z_MSC_CAPS_WindDir_IsbL-0700_RLatLon0.03_PT033H.grib2 2026-05-07 06:16 1.5M
20260507T00Z_MSC_CAPS_WindDir_IsbL-0750_RLatLon0.03_PT033H.grib2 2026-05-07 06:16 1.6M
20260507T00Z_MSC_CAPS_WindDir_IsbL-0800_RLatLon0.03_PT033H.grib2 2026-05-07 06:16 1.8M
20260507T00Z_MSC_CAPS_WindDir_IsbL-0850_RLatLon0.03_PT033H.grib2 2026-05-07 06:16 1.9M
20260507T00Z_MSC_CAPS_WindDir_IsbL-0875_RLatLon0.03_PT033H.grib2 2026-05-07 06:16 1.9M
20260507T00Z_MSC_CAPS_WindDir_IsbL-0900_RLatLon0.03_PT033H.grib2 2026-05-07 06:16 2.0M
20260507T00Z_MSC_CAPS_WindDir_IsbL-0925_RLatLon0.03_PT033H.grib2 2026-05-07 06:16 2.1M
20260507T00Z_MSC_CAPS_WindDir_IsbL-0950_RLatLon0.03_PT033H.grib2 2026-05-07 06:16 2.1M
20260507T00Z_MSC_CAPS_WindDir_IsbL-0970_RLatLon0.03_PT033H.grib2 2026-05-07 06:16 2.2M
20260507T00Z_MSC_CAPS_WindDir_IsbL-0985_RLatLon0.03_PT033H.grib2 2026-05-07 06:16 2.3M
20260507T00Z_MSC_CAPS_WindDir_IsbL-1000_RLatLon0.03_PT033H.grib2 2026-05-07 06:16 2.4M
20260507T00Z_MSC_CAPS_WindDir_IsbL-1015_RLatLon0.03_PT033H.grib2 2026-05-07 06:16 2.5M
20260507T00Z_MSC_CAPS_WindGust-Max_AGL-10m_RLatLon0.03_PT033H.grib2 2026-05-07 06:16 2.6M
20260507T00Z_MSC_CAPS_WindGust-Min_AGL-10m_RLatLon0.03_PT033H.grib2 2026-05-07 06:16 2.4M
20260507T00Z_MSC_CAPS_WindGust_AGL-10m_RLatLon0.03_PT033H.grib2 2026-05-07 06:16 2.5M
20260507T00Z_MSC_CAPS_WindSpeed_AGL-10m_RLatLon0.03_PT033H.grib2 2026-05-07 06:16 2.1M
20260507T00Z_MSC_CAPS_WindSpeed_AGL-120m_RLatLon0.03_PT033H.grib2 2026-05-07 06:16 1.1M
20260507T00Z_MSC_CAPS_WindSpeed_AGL-40m_RLatLon0.03_PT033H.grib2 2026-05-07 06:16 1.2M
20260507T00Z_MSC_CAPS_WindSpeed_AGL-80m_RLatLon0.03_PT033H.grib2 2026-05-07 06:16 1.1M
20260507T00Z_MSC_CAPS_WindSpeed_IsbL-0050_RLatLon0.03_PT033H.grib2 2026-05-07 06:16 942K
20260507T00Z_MSC_CAPS_WindSpeed_IsbL-0100_RLatLon0.03_PT033H.grib2 2026-05-07 06:16 929K
20260507T00Z_MSC_CAPS_WindSpeed_IsbL-0150_RLatLon0.03_PT033H.grib2 2026-05-07 06:16 1.0M
20260507T00Z_MSC_CAPS_WindSpeed_IsbL-0175_RLatLon0.03_PT033H.grib2 2026-05-07 06:16 1.1M
20260507T00Z_MSC_CAPS_WindSpeed_IsbL-0200_RLatLon0.03_PT033H.grib2 2026-05-07 06:16 883K
20260507T00Z_MSC_CAPS_WindSpeed_IsbL-0225_RLatLon0.03_PT033H.grib2 2026-05-07 06:16 1.0M
20260507T00Z_MSC_CAPS_WindSpeed_IsbL-0250_RLatLon0.03_PT033H.grib2 2026-05-07 06:16 1.0M
20260507T00Z_MSC_CAPS_WindSpeed_IsbL-0275_RLatLon0.03_PT033H.grib2 2026-05-07 06:16 1.0M
20260507T00Z_MSC_CAPS_WindSpeed_IsbL-0300_RLatLon0.03_PT033H.grib2 2026-05-07 06:16 1.0M
20260507T00Z_MSC_CAPS_WindSpeed_IsbL-0350_RLatLon0.03_PT033H.grib2 2026-05-07 06:16 1.0M
20260507T00Z_MSC_CAPS_WindSpeed_IsbL-0400_RLatLon0.03_PT033H.grib2 2026-05-07 06:16 1.0M
20260507T00Z_MSC_CAPS_WindSpeed_IsbL-0450_RLatLon0.03_PT033H.grib2 2026-05-07 06:16 1.0M
20260507T00Z_MSC_CAPS_WindSpeed_IsbL-0500_RLatLon0.03_PT033H.grib2 2026-05-07 06:16 1.3M
20260507T00Z_MSC_CAPS_WindSpeed_IsbL-0550_RLatLon0.03_PT033H.grib2 2026-05-07 06:16 1.5M
20260507T00Z_MSC_CAPS_WindSpeed_IsbL-0600_RLatLon0.03_PT033H.grib2 2026-05-07 06:16 1.4M
20260507T00Z_MSC_CAPS_WindSpeed_IsbL-0650_RLatLon0.03_PT033H.grib2 2026-05-07 06:16 1.5M
20260507T00Z_MSC_CAPS_WindSpeed_IsbL-0700_RLatLon0.03_PT033H.grib2 2026-05-07 06:16 1.5M
20260507T00Z_MSC_CAPS_WindSpeed_IsbL-0750_RLatLon0.03_PT033H.grib2 2026-05-07 06:16 1.6M
20260507T00Z_MSC_CAPS_WindSpeed_IsbL-0800_RLatLon0.03_PT033H.grib2 2026-05-07 06:16 1.7M
20260507T00Z_MSC_CAPS_WindSpeed_IsbL-0850_RLatLon0.03_PT033H.grib2 2026-05-07 06:16 1.8M
20260507T00Z_MSC_CAPS_WindSpeed_IsbL-0875_RLatLon0.03_PT033H.grib2 2026-05-07 06:16 1.8M
20260507T00Z_MSC_CAPS_WindSpeed_IsbL-0900_RLatLon0.03_PT033H.grib2 2026-05-07 06:16 1.9M
20260507T00Z_MSC_CAPS_WindSpeed_IsbL-0925_RLatLon0.03_PT033H.grib2 2026-05-07 06:16 1.9M
20260507T00Z_MSC_CAPS_WindSpeed_IsbL-0950_RLatLon0.03_PT033H.grib2 2026-05-07 06:16 2.0M
20260507T00Z_MSC_CAPS_WindSpeed_IsbL-0970_RLatLon0.03_PT033H.grib2 2026-05-07 06:16 2.0M
20260507T00Z_MSC_CAPS_WindSpeed_IsbL-0985_RLatLon0.03_PT033H.grib2 2026-05-07 06:16 2.0M
20260507T00Z_MSC_CAPS_WindSpeed_IsbL-1000_RLatLon0.03_PT033H.grib2 2026-05-07 06:16 2.1M
20260507T00Z_MSC_CAPS_WindSpeed_IsbL-1015_RLatLon0.03_PT033H.grib2 2026-05-07 06:16 2.1M
20260507T00Z_MSC_CAPS_WindU_AGL-10m_RLatLon0.03_PT033H.grib2 2026-05-07 06:16 1.9M
20260507T00Z_MSC_CAPS_WindU_AGL-120m_RLatLon0.03_PT033H.grib2 2026-05-07 06:16 902K
20260507T00Z_MSC_CAPS_WindU_AGL-40m_RLatLon0.03_PT033H.grib2 2026-05-07 06:16 940K
20260507T00Z_MSC_CAPS_WindU_AGL-80m_RLatLon0.03_PT033H.grib2 2026-05-07 06:16 907K
20260507T00Z_MSC_CAPS_WindU_IsbL-0050_RLatLon0.03_PT033H.grib2 2026-05-07 06:16 941K
20260507T00Z_MSC_CAPS_WindU_IsbL-0100_RLatLon0.03_PT033H.grib2 2026-05-07 06:16 779K
20260507T00Z_MSC_CAPS_WindU_IsbL-0150_RLatLon0.03_PT033H.grib2 2026-05-07 06:16 912K
20260507T00Z_MSC_CAPS_WindU_IsbL-0175_RLatLon0.03_PT033H.grib2 2026-05-07 06:16 942K
20260507T00Z_MSC_CAPS_WindU_IsbL-0200_RLatLon0.03_PT033H.grib2 2026-05-07 06:16 752K
20260507T00Z_MSC_CAPS_WindU_IsbL-0225_RLatLon0.03_PT033H.grib2 2026-05-07 06:16 897K
20260507T00Z_MSC_CAPS_WindU_IsbL-0250_RLatLon0.03_PT033H.grib2 2026-05-07 06:16 918K
20260507T00Z_MSC_CAPS_WindU_IsbL-0275_RLatLon0.03_PT033H.grib2 2026-05-07 06:16 921K
20260507T00Z_MSC_CAPS_WindU_IsbL-0300_RLatLon0.03_PT033H.grib2 2026-05-07 06:16 929K
20260507T00Z_MSC_CAPS_WindU_IsbL-0350_RLatLon0.03_PT033H.grib2 2026-05-07 06:16 941K
20260507T00Z_MSC_CAPS_WindU_IsbL-0400_RLatLon0.03_PT033H.grib2 2026-05-07 06:16 951K
20260507T00Z_MSC_CAPS_WindU_IsbL-0450_RLatLon0.03_PT033H.grib2 2026-05-07 06:16 1.0M
20260507T00Z_MSC_CAPS_WindU_IsbL-0500_RLatLon0.03_PT033H.grib2 2026-05-07 06:16 897K
20260507T00Z_MSC_CAPS_WindU_IsbL-0550_RLatLon0.03_PT033H.grib2 2026-05-07 06:16 936K
20260507T00Z_MSC_CAPS_WindU_IsbL-0600_RLatLon0.03_PT033H.grib2 2026-05-07 06:16 962K
20260507T00Z_MSC_CAPS_WindU_IsbL-0650_RLatLon0.03_PT033H.grib2 2026-05-07 06:16 1.0M
20260507T00Z_MSC_CAPS_WindU_IsbL-0700_RLatLon0.03_PT033H.grib2 2026-05-07 06:16 1.0M
20260507T00Z_MSC_CAPS_WindU_IsbL-0750_RLatLon0.03_PT033H.grib2 2026-05-07 06:16 1.1M
20260507T00Z_MSC_CAPS_WindU_IsbL-0800_RLatLon0.03_PT033H.grib2 2026-05-07 06:16 1.2M
20260507T00Z_MSC_CAPS_WindU_IsbL-0850_RLatLon0.03_PT033H.grib2 2026-05-07 06:16 1.2M
20260507T00Z_MSC_CAPS_WindU_IsbL-0875_RLatLon0.03_PT033H.grib2 2026-05-07 06:16 1.3M
20260507T00Z_MSC_CAPS_WindU_IsbL-0900_RLatLon0.03_PT033H.grib2 2026-05-07 06:16 1.3M
20260507T00Z_MSC_CAPS_WindU_IsbL-0925_RLatLon0.03_PT033H.grib2 2026-05-07 06:16 1.3M
20260507T00Z_MSC_CAPS_WindU_IsbL-0950_RLatLon0.03_PT033H.grib2 2026-05-07 06:16 1.4M
20260507T00Z_MSC_CAPS_WindU_IsbL-0970_RLatLon0.03_PT033H.grib2 2026-05-07 06:16 1.4M
20260507T00Z_MSC_CAPS_WindU_IsbL-0985_RLatLon0.03_PT033H.grib2 2026-05-07 06:16 1.5M
20260507T00Z_MSC_CAPS_WindU_IsbL-1000_RLatLon0.03_PT033H.grib2 2026-05-07 06:16 1.9M
20260507T00Z_MSC_CAPS_WindU_IsbL-1015_RLatLon0.03_PT033H.grib2 2026-05-07 06:16 1.9M
20260507T00Z_MSC_CAPS_WindV_AGL-10m_RLatLon0.03_PT033H.grib2 2026-05-07 06:16 2.0M
20260507T00Z_MSC_CAPS_WindV_AGL-120m_RLatLon0.03_PT033H.grib2 2026-05-07 06:16 1.2M
20260507T00Z_MSC_CAPS_WindV_AGL-40m_RLatLon0.03_PT033H.grib2 2026-05-07 06:16 1.2M
20260507T00Z_MSC_CAPS_WindV_AGL-80m_RLatLon0.03_PT033H.grib2 2026-05-07 06:16 1.2M
20260507T00Z_MSC_CAPS_WindV_IsbL-0050_RLatLon0.03_PT033H.grib2 2026-05-07 06:16 770K
20260507T00Z_MSC_CAPS_WindV_IsbL-0100_RLatLon0.03_PT033H.grib2 2026-05-07 06:16 939K
20260507T00Z_MSC_CAPS_WindV_IsbL-0150_RLatLon0.03_PT033H.grib2 2026-05-07 06:16 693K
20260507T00Z_MSC_CAPS_WindV_IsbL-0175_RLatLon0.03_PT033H.grib2 2026-05-07 06:16 842K
20260507T00Z_MSC_CAPS_WindV_IsbL-0200_RLatLon0.03_PT033H.grib2 2026-05-07 06:16 867K
20260507T00Z_MSC_CAPS_WindV_IsbL-0225_RLatLon0.03_PT033H.grib2 2026-05-07 06:16 681K
20260507T00Z_MSC_CAPS_WindV_IsbL-0250_RLatLon0.03_PT033H.grib2 2026-05-07 06:16 697K
20260507T00Z_MSC_CAPS_WindV_IsbL-0275_RLatLon0.03_PT033H.grib2 2026-05-07 06:16 704K
20260507T00Z_MSC_CAPS_WindV_IsbL-0300_RLatLon0.03_PT033H.grib2 2026-05-07 06:16 710K
20260507T00Z_MSC_CAPS_WindV_IsbL-0350_RLatLon0.03_PT033H.grib2 2026-05-07 06:16 721K
20260507T00Z_MSC_CAPS_WindV_IsbL-0400_RLatLon0.03_PT033H.grib2 2026-05-07 06:16 726K
20260507T00Z_MSC_CAPS_WindV_IsbL-0450_RLatLon0.03_PT033H.grib2 2026-05-07 06:16 966K
20260507T00Z_MSC_CAPS_WindV_IsbL-0500_RLatLon0.03_PT033H.grib2 2026-05-07 06:16 1.0M
20260507T00Z_MSC_CAPS_WindV_IsbL-0550_RLatLon0.03_PT033H.grib2 2026-05-07 06:16 1.0M
20260507T00Z_MSC_CAPS_WindV_IsbL-0600_RLatLon0.03_PT033H.grib2 2026-05-07 06:16 944K
20260507T00Z_MSC_CAPS_WindV_IsbL-0650_RLatLon0.03_PT033H.grib2 2026-05-07 06:16 1.0M
20260507T00Z_MSC_CAPS_WindV_IsbL-0700_RLatLon0.03_PT033H.grib2 2026-05-07 06:16 1.0M
20260507T00Z_MSC_CAPS_WindV_IsbL-0750_RLatLon0.03_PT033H.grib2 2026-05-07 06:16 1.1M
20260507T00Z_MSC_CAPS_WindV_IsbL-0800_RLatLon0.03_PT033H.grib2 2026-05-07 06:16 1.1M
20260507T00Z_MSC_CAPS_WindV_IsbL-0850_RLatLon0.03_PT033H.grib2 2026-05-07 06:16 1.2M
20260507T00Z_MSC_CAPS_WindV_IsbL-0875_RLatLon0.03_PT033H.grib2 2026-05-07 06:16 1.3M
20260507T00Z_MSC_CAPS_WindV_IsbL-0900_RLatLon0.03_PT033H.grib2 2026-05-07 06:16 1.3M
20260507T00Z_MSC_CAPS_WindV_IsbL-0925_RLatLon0.03_PT033H.grib2 2026-05-07 06:16 1.3M
20260507T00Z_MSC_CAPS_WindV_IsbL-0950_RLatLon0.03_PT033H.grib2 2026-05-07 06:16 1.7M
20260507T00Z_MSC_CAPS_WindV_IsbL-0970_RLatLon0.03_PT033H.grib2 2026-05-07 06:16 1.8M
20260507T00Z_MSC_CAPS_WindV_IsbL-0985_RLatLon0.03_PT033H.grib2 2026-05-07 06:16 1.8M
20260507T00Z_MSC_CAPS_WindV_IsbL-1000_RLatLon0.03_PT033H.grib2 2026-05-07 06:16 2.0M
20260507T00Z_MSC_CAPS_WindV_IsbL-1015_RLatLon0.03_PT033H.grib2 2026-05-07 06:16 2.0M